Volver al catálogo

DELTA 1 DEB

ActivoPO
NORAD 26843·DEBRIS·🇺🇸 United States

Lanzado Jun 12, 1975 desde Vandenberg Space Force Base

Loading…

Próximos Pases (próximas 24 horas)

TLE

ActualizadoSource: Space-Track

Época: Sep 14, 2026, 02:27 UTC

1 26843U 75052KX  26257.10272196  .00000047  00000-0  20353-3 0  9999
2 26843  99.7016 113.8671 0115949 236.4667 276.8686 13.22353107550636

Sigue DELTA 1 DEB en tiempo real con AllMySat

Download on the App Store